Regional Weather Roundup
Issued by NWS

Home | Current Version | Previous Version | Graphics & Text | Print | Product List | Glossary On
Versions: 1 2 3 4 5 6 7 8 9 10 11 12 13 14 15 16 17 18 19 20 21 22 23 24 25 26 27 28 29 30 31 32 33 34 35 36 37 38 39 40 41 42 43 44 45 46 47 48 49 50
000
ASUS43 KMPX 211910
RWRMN
WEATHER ROUNDUP FOR MINNESOTA
NATIONAL WEATHER SERVICE TWIN CITIES/CHANHASSEN MN
200 PM CDT MON AUG 21 2017


NOTE: "FAIR" INDICATES FEW OR NO CLOUDS BELOW 12,000 FEET WITH NO
SIGNIFICANT WEATHER AND/OR OBSTRUCTIONS TO VISIBILITY. N/A MEANS
CURRENT SKY AND/OR WEATHER CONDITIONS ARE NOT AVAILABLE.

MNZ060>063-068>070-212000-
   Twin Cities Metro

CITY           SKY/WX    TMP DP  RH WIND       PRES   REMARKS
TWIN CITIES    CLOUDY    77  64  64 SE7       29.93F
ST PAUL        CLOUDY    75  68  78 S7        29.94F
CRYSTAL        LGT RAIN  72  63  73 S8        29.91F
BLAINE         CLOUDY    72  66  83 SE9       29.91F
LAKEVILLE      CLOUDY    72  70  94 CALM      29.95F
EDEN PRAIRIE   LGT RAIN  75  66  73 CALM      29.93F
SOUTH ST PAUL  CLOUDY    75  66  72 S5        29.94F
LAKE ELMO      PTSUNNY   73  68  83 E5        29.96F
$$
MNZ001>005-007-008-013>017-022>024-027-028-212000-
   Northwest Minnesota

CITY           SKY/WX    TMP DP  RH WIND       PRES   REMARKS
BEMIDJI        CLOUDY    66  54  63 S6        29.92F
HALLOCK        LGT RAIN  63  61  94 SE8       29.90F
ROSEAU           N/A     64  57  77 CALM      29.94S
WARROAD        CLOUDY    63  59  88 CALM      29.94F
THIEF RVR FALL CLOUDY    68  52  56 NW3       29.93F
CROOKSTON      CLOUDY    72  54  53 SW5       29.91F
FOSSTON        CLOUDY    68  52  56 S3        29.91F
DETROIT LAKES  CLOUDY    68  55  64 S3        29.90F
MOORHEAD       CLOUDY    70  61  73 S7        29.88F
PARK RAPIDS    PTSUNNY   67  56  67 SE5       29.89F
MAHNOMEN       MOCLDY    68  55  63 S3        29.89F
$$
MNZ006-009>011-018-025>026-212000-
   North Central Minnesota

CITY           SKY/WX    TMP DP  RH WIND       PRES   REMARKS
BAUDETTE       CLOUDY    64  58  80 NE6       29.93F
FLAG ISLAND    PTSUNNY   64  52  63 CALM      29.92F
INTL FALLS     CLOUDY    66  58  75 CALM      29.94F
WASKISH        RAIN      64  57  77 E3        29.92F
BIG FORK       CLOUDY    64  55  72 CALM      29.93F
LONGVILLE      CLOUDY    64  57  77 CALM      29.90F
GRAND RAPIDS   CLOUDY    63  58  83 E5        29.92F
CRANE LAKE     CLOUDY    63  59  88 CALM      29.97F
ORR            CLOUDY    64  55  72 CALM      29.92F
COOK           LGT RAIN  63  57  82 CALM      29.94F
WALKER         CLOUDY    64  55  72 CALM      29.91F
$$
MNZ012-019>021-037-212000-
   Northeast Minnesota

CITY           SKY/WX    TMP DP  RH WIND       PRES   REMARKS
DULUTH         CLOUDY    64  58  80 NE6       29.94F
ELY            LGT RAIN  64  54  68 CALM      29.99F
HIBBING        CLOUDY    60  57  89 SE5       29.93F
EVELETH        CLOUDY    61  55  80 NE3       29.94F
DULUTH HARBOR  CLOUDY    66  63  88 SE6       29.94F
TWO HARBORS    CLOUDY    66  61  82 NE3       29.93F
SILVER BAY     CLOUDY    66  61  82 CALM      29.95
GRAND MARAIS     N/A     67  56  67 CALM      29.97F
G MARAIS ARPRT CLOUDY    64  48  55 CALM      30.02F
$$
MNZ029>031-032-039>041-046>048-054>057-064-212000-
   West Central Minnesota

CITY           SKY/WX    TMP DP  RH WIND       PRES   REMARKS
FERGUS FALLS   CLOUDY    70  61  73 S7        29.89S
WHEATON        CLOUDY    66  61  82 S5        29.91S
MORRIS         CLOUDY    66  64  94 SW12      29.90R
ALEXANDRIA     CLOUDY    67  61  81 SE6       29.90S
ELBOW LAKE     CLOUDY    67  63  85 SW8       29.91R FOG
WADENA         MOSUNNY   68  57  68 E5        29.88F
GLENWOOD       CLOUDY    68  63  83 SE5       29.89S
APPLETON       CLOUDY    64  61  88 SW8       29.89F
BENSON         CLOUDY    66  63  88 W13       29.91R
ORTONVILLE     CLOUDY    64  61  88 MISG      29.91R
MADISON        CLOUDY    66  66 100 NW5       29.91R
WILLMAR        FAIR      68  66  94 W10       29.88R
$$
MNZ033>034-036-042>043-049>051-058-059-212000-
   Central Minnesota

CITY           SKY/WX    TMP DP  RH WIND       PRES   REMARKS
ST CLOUD       CLOUDY    65  65 100 E5        29.89F
SAUK CENTRE    FAIR      65  61  85 E8        29.88F
PAYNESVILLE    CLOUDY    64  63  97 NE6       29.87F
AITKIN         CLOUDY    66  57  72 SE7       29.89F
PINE RIVER     PTSUNNY   64  57  77 SE6       29.93F
BRAINERD       CLOUDY    68  59  73 SE8       29.89F
STAPLES        CLOUDY    68  55  64 SE5       29.88F
LONG PRAIRIE   FAIR      64  59  82 E6        29.89F
LITTLE FALLS   CLOUDY    68  59  73 SE8       29.89F
LITCHFIELD     CLOUDY    70  68  94 SE5       29.85F
BUFFALO        CLOUDY    68  64  89 SE8       29.89F
MAPLE LAKE     CLOUDY    67  66  96 SE6       29.88F
HUTCHINSON     TSTM      68  67  97 SE10      29.88F
$$
MNZ037-044-045-052-053-212000-
   East Central Minnesota

CITY           SKY/WX    TMP DP  RH WIND       PRES   REMARKS
PRINCETON      CLOUDY    66  64  94 E3        29.91R
MORA           CLOUDY    64  61  88 E6        29.92F
CAMBRIDGE      CLOUDY    72  64  78 CALM      29.91F
RUSH CITY      LGT RAIN  70  65  85 E3        29.92F
MOOSE LAKE     CLOUDY    64  57  77 CALM      29.91
HINCKLEY       FAIR      68  63  83 E6        29.93F
CLOQUET        CLOUDY    64  54  68 E3        29.94F
MCGREGOR       CLOUDY    64  59  82 E9        29.91F
$$
MNZ071>073-080-081-089-090-097-098-212000-
   Southwest Minnesota

CITY           SKY/WX    TMP DP  RH WIND       PRES   REMARKS
MONTEVIDEO     CLOUDY    64  64 100 NW5       29.91R
GRANITE FALLS  CLOUDY    68  66  91 S13G18    29.87F
CANBY          CLOUDY    67  64  90 CALM      29.90S
MARSHALL       CLOUDY    64  63  96 S13       29.90F
REDWOOD FALLS  CLOUDY    65  63  93 SE10      29.88F
OLIVIA         CLOUDY    68  63  83 S10G23    29.86F
PIPESTONE      TSTM      66  63  88 S3        29.98R
WINDOM         RAIN      66  64  94 E5        29.97F
WORTHINGTON    TSTM      64  64 100 E8        29.98R FOG
JACKSON        TSTM      64  63  94 CALM      30.00S
TRACY          CLOUDY    66  65  99 S8        29.92F
SLAYTON        CLOUDY    63  59  87 SE3       29.98F
$$
MNZ065>067-074>077-082>085-091>093-212000-
   South Central Minnesota

CITY           SKY/WX    TMP DP  RH WIND       PRES   REMARKS
MANKATO        TSTM      68  66  94 VRB5      30.00R FOG
NEW ULM        RAIN      66  64  94 NW5       29.96F
ST JAMES       RAIN      70  66  88 CALM      29.99F
FAIRMONT       TSTM      68  66  94 SW6       30.01F
GLENCOE        TSTM      71  71 100 CALM      29.97S
FARIBAULT      CLOUDY    73  66  78 E3        29.96S
OWATONNA       CLOUDY    73  66  78 S3        29.96F
WASECA         CLOUDY    72  64  78 S3        29.97F THUNDER
ALBERT LEA     LGT RAIN  75  63  64 S3        29.97F
$$
MNZ078>079-086>088-094>096-212000-
   Southeast Minnesota

CITY           SKY/WX    TMP DP  RH WIND       PRES   REMARKS
ROCHESTER      CLOUDY    73  68  84 S6        29.98S
RED WING       MOSUNNY   75  66  73 CALM      29.94F
STANTON        CLOUDY    74  69  81 CALM      29.94F
DODGE CENTER   CLOUDY    73  66  78 S3        29.97F
WINONA         CLOUDY    77  68  73 CALM      29.97S
AUSTIN         CLOUDY    72  64  78 S3        29.98F
PRESTON        CLOUDY    71  64  77 CALM      30.00R
$$
ABBREVIATIONS USED IN REMARKS
   TC - TEMPERATURES IN CELSIUS
  WCI - WIND CHILL INDEX
   HX - HEAT INDEX
  VSB - VISIBILITY
$$




USA.gov is the U.S. government's official web portal to all federal, state and local government web resources and services.